Temperature
6 5 5 5 6 7 6 6 6 7 6 6 6 6 6 6 6 6 6 7 7 8 8 8 8 9 9 9 9 9 9 9 9 9 9 9 10 9 10 10 10 10 9 9
5 5 5 6 6 6 6 6 6 6 6 6 5 5 5 5 5 6 6 6 7 7 7 8 8 8 8 8 8 8 8 8 8 9 9 9 9 9 9 9 9 9 9 9
5 5 6 6 5 6 6 5 6 6 5 5 5 5 5 5 5 5 6 6 6 7 7 7 7 8 8 8 8 8 8 8 8 8 8 8 8 8 8 8 8 8 8 8
4 5 5 5 5 5 6 5 5 5 5 4 4 5 5 5 4 4 5 5 6 6 7 7 7 7 7 7 7 7 7 7 7 7 7 7 7 7 8 8 8 8 8 8
4 4 5 5 5 5 5 5 4 4 4 3 3 3 4 4 4 4 4 5 6 6 6 6 7 7 7 7 7 7 7 7 7 7 7 7 7 7 7 7 7 7 7 7
4 4 4 5 4 5 4 4 3 2 2 4 3 3 4 3 4 4 4 5 5 5 6 6 6 6 6 6 6 6 6 6 6 6 6 6 6 6 6 6 6 7 7 7
3 4 4 4 4 4 4 3 3 3 2 3 2 3 3 4 3 3 3 4 5 5 5 5 5 5 6 6 6 6 6 6 6 6 6 6 6 6 6 6 6 6 6 6
3 3 3 4 4 4 3 4 3 3 2 2 2 2 3 3 3 3 3 4 4 4 5 5 5 5 5 5 5 5 5 5 5 5 5 5 5 5 5 5 5 5 5 6
2 3 3 3 3 4 3 2 2 1 1 1 2 1 2 2 2 2 2 3 3 4 4 4 4 4 4 4 5 4 4 4 4 4 4 4 4 4 4 4 4 4 4 5
2 2 2 3 3 3 3 2 1 2 2 3 2 2 3 3 3 2 1 2 3 3 4 4 4 4 4 4 4 4 4 4 4 4 4 4 4 4 4 4 4 4 4 4
1 1 1 2 2 2 2 2 1 0 1 2 2 3 2 2 2 1 1 2 2 3 3 3 3 3 3 3 3 3 3 3 3 3 3 3 3 3 3 3 3 3 3 3
0 -0 0 0 1 1 2 2 1 2 1 -0 -0 2 2 1 1 1 1 2 2 2 2 2 2 2 2 2 2 2 2 2 3 3 3 2 2 2 2 2 2 2 3 3
-0 -0 0 1 1 0 0 0 0 -0 -1 -1 0 2 1 0 0 1 1 1 1 1 1 1 1 1 1 1 2 2 2 2 2 2 2 2 2 2 2 2 2 2 2 2
0 -1 0 1 1 -0 -0 -0 -1 -0 -0 -1 -1 1 1 1 0 0 0 1 1 1 1 1 1 1 1 1 1 1 1 1 1 1 1 1 1 1 1 1 1 1 1 1
-1 -1 -2 -1 -1 -0 -0 -0 -1 -1 -1 -0 0 -0 1 0 -0 0 0 0 0 0 0 0 0 0 0 0 0 0 0 0 0 0 0 0 0 0 0 0 0 1 1 1
-2 -2 -2 -1 -1 -1 -1 -1 -1 -1 -1 -1 -1 -0 -0 -0 -0 -0 -0 -0 -0 -0 -0 -0 -0 -0 -0 -0 -0 -0 -0 -1 -0 -0 -0 -0 -0 -0 -0 -0 -0 -0 -0 0
-3 -3 -2 -2 -2 -1 -1 -1 -1 -1 -2 -1 -1 -0 -1 -1 -1 -1 -0 -0 -0 -0 -0 -1 -0 -0 -1 -1 -1 -1 -1 -1 -1 -1 -1 -1 -1 -1 -1 -1 -1 -1 -1 -1
-4 -3 -3 -3 -2 -1 0 -2 -2 -1 -2 -2 -2 -2 -2 -1 -1 -0 0 -0 -0 -0 -0 -1 -1 -1 -1 -1 -1 -1 -1 -2 -2 -2 -2 -2 -2 -1 -2 -2 -1 -1 -1 -1
-4 -3 -3 -3 -3 -2 -1 -2 -2 -2 -2 -3 -2 -2 -2 -2 -2 -1 0 -0 -0 -0 -1 -1 -1 -1 -1 -1 -1 -2 -2 -2 -2 -2 -2 -2 -2 -2 -2 -2 -2 -2 -2 -2
-4 -4 -3 -4 -2 -1 -0 -2 -2 -2 -2 -2 -3 -3 -3 -3 -2 -2 -0 -1 -1 -1 -1 -1 -1 -1 -1 -2 -2 -2 -2 -2 -2 -2 -2 -3 -3 -3 -3 -2 -2 -2 -2 -2
-4 -4 -4 -4 -3 -2 -2 -3 -2 -1 -1 -2 -2 -2 -3 -3 -2 -1 -1 -1 -1 -1 -1 -2 -2 -2 -2 -2 -2 -2 -2 -2 -3 -3 -3 -3 -3 -3 -3 -3 -3 -3 -3 -3
-4 -4 -4 -4 -3 -2 -3 -3 -2 -2 -2 -2 -2 -2 -2 -2 -2 -2 -2 -2 -2 -2 -2 -2 -2 -2 -2 -2 -3 -3 -3 -3 -3 -3 -3 -3 -3 -4 -4 -4 -4 -4 -4 -4
-5 -4 -4 -3 -2 -3 -3 -3 -2 -2 -2 -2 -2 -2 -2 -3 -3 -3 -3 -2 -2 -2 -2 -2 -3 -3 -3 -3 -3 -3 -3 -3 -3 -3 -3 -4 -4 -4 -4 -4 -4 -4 -4 -4
-6 -6 -5 -5 -5 -4 -3 -2 -2 -2 -2 -2 -2 -2 -3 -3 -3 -3 -3 -3 -3 -3 -3 -3 -3 -3 -3 -3 -4 -4 -4 -4 -4 -4 -4 -4 -4 -4 -4 -5 -5 -5 -5 -5
-5 -6 -6 -6 -5 -4 -3 -2 -2 -2 -2 -2 -2 -3 -3 -3 -3 -3 -3 -3 -3 -3 -4 -4 -4 -4 -4 -4 -4 -4 -4 -4 -4 -4 -4 -5 -5 -5 -5 -5 -5 -5 -5 -5
-6 -6 -5 -4 -4 -4 -3 -2 -2 -2 -2 -3 -3 -3 -3 -3 -3 -3 -4 -4 -4 -4 -4 -4 -4 -4 -4 -4 -4 -4 -5 -5 -5 -5 -5 -5 -5 -5 -6 -6 -5 -5 -6 -6
Wind_Speed
2 3 4 7 6 3 4 4 4 3 1 2 6 8 8 4 4 6 5 4 4 3 3 1 1 1 2 2 2 2 2 2 1 0 0 1 1 1 1 1 1 1 1 1
3 3 4 3 3 2 3 3 3 2 1 1 4 8 7 5 6 7 8 7 6 3 2 1 1 1 1 1 1 2 2 2 2 1 1 1 1 1 1 1 1 1 1 1
5 2 3 4 3 4 4 5 4 3 2 2 3 7 5 4 4 4 6 5 5 5 4 3 2 1 0 1 1 1 1 2 2 2 1 2 1 1 1 1 1 2 2 2
2 2 2 3 4 5 5 3 4 3 1 3 0 6 7 4 5 6 7 6 6 5 4 4 3 2 1 2 1 2 1 1 1 1 1 0 0 1 2 2 2 3 2 2
2 1 2 4 3 4 3 2 2 2 2 2 2 3 8 2 6 8 8 7 6 6 5 4 4 3 2 1 1 2 2 2 2 2 1 1 1 1 1 1 1 2 2 2
1 1 1 3 1 3 4 4 4 3 2 4 5 5 7 5 7 6 5 5 5 4 4 3 2 1 0 1 1 2 2 2 2 2 1 1 1 1 1 1 2 2 2 2
1 1 0 2 3 2 3 4 2 2 1 6 3 5 9 6 5 6 6 5 4 2 2 2 1 1 1 1 1 1 1 2 3 2 2 1 1 1 2 2 2 2 2 2
3 3 2 1 4 5 4 5 6 5 5 4 2 7 7 4 4 3 3 3 2 2 2 2 2 2 1 1 1 1 1 2 2 3 3 2 1 1 1 2 2 2 3 3
5 3 1 0 0 5 5 4 4 5 1 2 6 6 7 2 2 2 2 1 2 2 2 2 1 1 1 1 1 1 1 2 3 3 3 2 2 1 2 2 2 2 3 3
4 2 2 1 2 1 3 6 4 4 3 4 5 5 5 5 4 3 2 2 3 2 1 1 1 1 1 1 1 1 1 1 2 2 2 2 3 2 2 2 2 3 3 3
3 3 1 1 4 5 4 3 4 3 4 4 4 7 4 5 4 3 3 3 3 3 2 1 1 1 1 2 2 2 2 2 2 3 3 3 3 3 2 2 2 3 3 3
2 3 2 4 3 1 3 5 6 5 4 4 3 7 3 2 2 2 3 3 2 1 1 0 1 1 1 2 2 2 3 3 3 3 2 3 3 3 3 3 3 3 3 3
4 4 1 3 2 1 2 3 4 4 3 5 5 7 2 1 2 2 2 2 2 1 0 1 1 1 1 2 2 3 3 3 3 3 2 3 3 3 3 3 3 3 3 3
4 3 5 7 5 4 4 4 5 5 4 5 9 9 8 7 6 4 3 2 2 1 0 0 1 1 2 2 2 3 3 3 3 3 3 3 3 3 3 3 3 3 3 3
3 3 3 3 3 3 5 7 7 9 9 9 9 9 11 8 6 5 4 3 2 2 2 2 2 2 2 2 2 3 3 3 3 3 3 3 3 3 3 3 3 3 3 4
3 3 1 2 2 3 6 8 9 10 8 9 9 11 9 6 3 4 4 3 3 4 3 3 3 2 2 2 2 3 3 3 3 3 4 4 4 4 4 4 3 3 4 4
3 4 2 2 3 3 7 9 10 7 7 8 11 10 4 4 5 5 5 5 5 5 4 4 4 3 3 3 2 3 3 3 3 3 4 4 4 4 4 4 4 4 4 4
5 4 3 1 2 6 6 2 5 6 7 7 6 6 5 6 5 5 5 6 6 5 4 4 3 3 3 2 2 2 2 2 3 3 4 4 4 4 4 4 4 4 4 4
3 5 3 2 3 8 6 2 4 5 6 6 7 7 5 3 3 4 4 4 5 5 4 4 3 3 2 2 2 1 2 2 3 4 4 4 4 4 4 4 4 4 4 4
2 3 4 3 3 6 5 1 1 2 5 4 5 6 4 0 2 5 2 1 2 3 2 2 2 2 2 2 1 1 2 2 4 4 5 4 4 4 5 5 4 4 4 4
3 2 4 5 5 8 4 1 3 3 5 2 3 4 4 5 5 4 3 3 2 2 2 2 2 2 2 2 1 2 3 4 4 4 4 4 4 4 4 4 4 4 4 4
7 6 6 5 5 8 2 4 5 6 3 2 3 3 4 4 4 3 3 3 2 2 2 1 1 2 2 2 1 3 4 4 3 4 4 4 4 4 3 3 4 3 3 3
6 7 5 8 7 3 4 5 4 2 3 3 3 3 3 3 4 4 3 3 3 2 2 2 2 2 2 2 2 3 4 3 3 3 3 4 4 4 3 3 3 3 2 2
3 2 3 4 7 5 5 4 4 3 4 4 3 3 3 4 4 4 3 3 3 3 2 2 1 2 3 2 2 3 3 2 2 3 4 4 3 4 3 3 3 3 3 3
5 5 3 5 6 5 4 5 5 4 3 3 3 2 3 4 4 4 4 4 3 3 2 2 2 3 4 3 3 3 3 2 2 3 3 3 3 4 4 3 3 3 4 4
4 6 6 6 5 4 5 4 3 3 4 4 3 3 3 3 4 4 4 4 3 3 2 2 2 3 3 3 3 3 3 2 2 3 3 3 3 3 3 3 4 5 5 7
Wind_Direction
65 107 196 210 201 187 166 178 221 241 286 209 235 255 262 238 211 217 223 223 232 252 276 316 20 36 48 33 34 28 19 7 35 17 214 209 239 258 265 300 298 266 239 213
70 230 226 184 177 152 167 195 228 293 342 229 266 270 263 227 221 216 216 221 225 239 276 279 309 35 53 19 11 14 7 353 355 341 293 236 229 230 248 318 334 302 256 225
179 215 171 160 170 182 206 202 214 241 343 1 321 288 254 242 228 228 225 224 226 220 228 242 245 266 3 341 324 325 332 347 349 353 21 22 36 31 334 308 302 327 314 262
203 256 178 169 190 179 226 208 193 193 204 281 240 277 268 239 245 238 234 227 228 231 229 233 239 246 250 278 318 329 327 347 356 12 32 46 224 262 271 288 293 316 323 311
213 179 166 196 202 172 187 132 140 156 167 284 255 238 279 237 245 244 233 227 228 227 221 225 232 233 238 267 329 339 342 351 2 17 1 267 258 246 288 321 316 320 312 307
220 236 175 178 117 146 138 89 63 56 84 254 224 204 272 233 230 244 237 230 232 230 228 235 240 222 306 2 14 11 9 353 355 4 354 304 247 244 316 318 307 308 305 293
330 300 44 131 116 104 122 115 49 350 297 247 213 216 252 250 238 234 234 232 233 227 220 229 240 255 315 2 7 3 12 347 345 347 335 306 267 236 239 260 269 295 300 287
167 255 226 186 174 170 177 157 169 201 224 272 254 235 253 261 269 263 248 238 231 234 233 234 234 236 255 281 329 356 359 345 344 343 331 322 305 286 274 275 275 276 282 282
175 222 350 204 183 149 152 183 158 136 139 267 260 275 297 267 305 314 301 289 258 253 248 247 263 268 255 263 282 292 333 349 341 337 334 322 313 298 291 297 295 291 288 296
150 186 296 307 88 35 147 142 122 150 177 247 273 262 251 259 262 283 297 294 287 289 300 311 336 346 331 310 311 337 346 319 319 329 325 324 316 307 302 307 306 301 298 299
134 150 321 10 196 188 145 146 145 144 164 180 252 265 231 223 230 247 272 278 270 277 293 314 341 355 354 360 2 4 358 352 344 336 327 325 324 329 328 313 303 301 299 302
137 131 213 252 277 267 198 181 160 172 215 192 205 267 285 226 248 257 278 297 294 273 275 303 4 3 1 357 358 2 355 349 337 331 336 333 329 337 335 323 319 312 302 300
139 128 92 344 338 346 217 197 177 150 145 179 200 260 301 358 308 298 274 292 303 305 21 42 26 353 341 344 349 350 349 344 342 344 346 344 338 336 328 322 322 321 312 309
124 145 182 203 219 193 214 211 182 166 195 217 227 252 280 286 290 297 286 277 284 281 260 280 312 314 323 330 337 340 341 343 345 351 348 338 330 325 318 318 323 322 319 312
110 174 210 250 264 221 230 228 207 208 210 216 240 244 261 265 272 281 280 282 281 273 273 274 288 302 313 324 333 335 336 340 342 344 341 330 327 326 325 323 320 320 320 312
105 152 142 294 283 259 261 245 226 228 228 232 252 265 262 267 265 265 264 259 258 259 263 272 283 289 295 301 312 325 327 329 336 333 323 324 329 328 324 320 319 321 319 312
140 141 141 259 315 334 270 235 213 212 211 199 227 243 247 260 258 253 249 250 253 256 256 255 262 266 273 279 290 294 302 318 326 322 318 321 323 320 317 317 321 317 313 314
146 137 149 181 51 247 252 224 199 213 235 217 235 255 248 248 268 263 242 236 248 251 253 255 259 267 271 271 287 292 302 310 312 314 312 315 315 313 312 313 310 310 310 310
159 149 145 155 233 276 285 235 178 197 262 230 231 254 270 285 315 288 241 216 229 243 247 248 251 255 263 270 277 294 304 304 307 305 303 304 306 305 306 305 304 306 308 309
93 126 143 156 201 246 260 220 180 119 281 251 212 234 249 153 276 274 278 252 255 269 262 257 260 261 263 273 261 254 278 290 290 293 295 298 299 296 296 297 300 303 301 302
142 152 184 190 226 262 257 212 123 175 253 267 220 230 216 214 232 259 298 304 284 286 275 250 235 250 254 260 248 259 272 276 285 295 300 301 299 294 293 299 300 300 304 309
175 173 189 175 211 253 207 140 187 228 276 258 241 232 228 243 268 278 279 284 291 302 300 279 261 278 277 251 233 264 273 283 293 296 299 300 301 300 306 307 307 305 304 309
200 194 191 197 218 260 192 213 237 239 250 248 235 241 228 244 260 267 270 273 284 290 289 291 268 286 295 279 243 258 280 292 301 306 305 305 308 308 304 296 298 304 301 298
243 201 190 245 263 259 254 264 270 249 248 255 246 244 226 241 257 262 265 271 278 287 281 277 271 280 292 289 283 270 283 288 298 303 305 306 310 311 307 300 294 293 290 290
214 174 199 252 276 295 268 250 258 263 263 274 277 258 237 236 254 252 260 268 271 280 282 267 255 270 280 289 296 300 295 289 292 298 301 307 309 305 305 304 291 287 273 271
196 185 191 232 232 217 254 261 255 254 265 264 267 278 264 235 247 257 260 262 264 270 272 278 277 281 286 291 296 298 291 279 284 299 304 304 304 303 303 305 309 301 290 293
Height
1485 1490 1493 1492 1493 1493 1496 1498 1499 1499 1498 1499 1498 1497 1494 1494 1495 1495 1496 1496 1497 1498 1499 1500 1501 1501 1502 1502 1502 1502 1503 1504 1505 1506 1506 1507 1508 1509 1510 1511 1511 1512 1512 1513
1490 1492 1491 1491 1492 1494 1496 1498 1499 1499 1499 1499 1499 1496 1492 1492 1491 1492 1492 1493 1494 1495 1496 1497 1498 1498 1499 1499 1500 1500 1500 1501 1501 1502 1503 1504 1504 1505 1506 1507 1508 1508 1509 1510
1488 1490 1489 1491 1493 1494 1496 1498 1499 1500 1500 1500 1501 1495 1491 1489 1489 1489 1490 1490 1491 1492 1493 1494 1495 1495 1496 1497 1498 1498 1498 1498 1498 1499 1500 1500 1501 1502 1503 1503 1504 1504 1505 1506
1489 1488 1489 1490 1492 1493 1495 1496 1497 1499 1503 1506 1504 1502 1490 1488 1488 1486 1486 1487 1488 1489 1490 1491 1492 1493 1494 1495 1495 1496 1496 1496 1496 1496 1497 1497 1497 1497 1498 1499 1500 1501 1501 1502
1488 1488 1488 1490 1491 1492 1494 1496 1498 1500 1504 1508 1507 1507 1491 1488 1486 1483 1483 1483 1484 1486 1487 1488 1489 1490 1491 1492 1493 1493 1493 1493 1493 1493 1494 1494 1494 1494 1495 1495 1496 1497 1498 1498
1488 1488 1488 1489 1490 1491 1494 1498 1502 1506 1508 1508 1505 1506 1492 1488 1482 1480 1479 1480 1481 1483 1484 1486 1487 1488 1488 1489 1490 1490 1490 1490 1491 1491 1491 1491 1491 1491 1491 1491 1492 1492 1493 1494
1489 1488 1488 1488 1491 1493 1494 1500 1509 1510 1515 1508 1504 1502 1490 1480 1478 1477 1477 1478 1479 1480 1482 1483 1483 1484 1485 1486 1487 1487 1487 1487 1488 1488 1488 1488 1488 1488 1488 1488 1488 1488 1489 1490
1491 1492 1488 1488 1488 1491 1494 1496 1505 1508 1513 1510 1506 1500 1485 1478 1476 1475 1476 1476 1477 1478 1479 1480 1481 1481 1482 1483 1484 1484 1484 1484 1485 1485 1485 1485 1485 1485 1484 1484 1484 1484 1485 1485
1490 1491 1488 1488 1488 1489 1493 1497 1499 1509 1515 1513 1503 1496 1483 1476 1475 1475 1474 1474 1474 1475 1476 1477 1478 1479 1479 1480 1481 1481 1481 1481 1482 1482 1482 1482 1482 1482 1481 1481 1481 1481 1480 1481
1486 1493 1490 1489 1488 1490 1491 1495 1503 1506 1507 1504 1498 1495 1485 1476 1475 1474 1474 1473 1473 1474 1475 1475 1476 1476 1477 1478 1478 1478 1478 1478 1478 1479 1479 1479 1479 1478 1478 1477 1477 1477 1477 1476
1486 1492 1493 1491 1491 1491 1493 1496 1498 1504 1505 1506 1503 1489 1476 1475 1474 1474 1474 1473 1473 1473 1473 1474 1474 1474 1475 1475 1475 1475 1475 1475 1476 1476 1475 1475 1475 1475 1474 1474 1473 1473 1473 1472
1487 1492 1496 1494 1491 1490 1490 1491 1496 1499 1504 1508 1507 1491 1474 1473 1473 1473 1473 1473 1472 1472 1472 1472 1473 1473 1473 1473 1473 1473 1473 1473 1473 1473 1472 1472 1472 1471 1471 1470 1470 1469 1469 1469
1486 1492 1496 1494 1496 1494 1492 1491 1493 1497 1502 1507 1502 1486 1473 1473 1473 1473 1473 1472 1471 1471 1471 1471 1471 1471 1471 1471 1471 1471 1471 1471 1470 1470 1469 1469 1468 1468 1467 1467 1466 1465 1465 1464
1482 1489 1491 1489 1487 1489 1490 1490 1492 1494 1498 1500 1494 1482 1474 1473 1472 1471 1471 1471 1470 1470 1470 1470 1470 1470 1470 1470 1469 1469 1468 1468 1467 1467 1466 1466 1465 1464 1463 1463 1462 1461 1461 1460
1482 1488 1490 1489 1487 1487 1487 1486 1489 1490 1488 1489 1482 1481 1472 1471 1471 1470 1469 1469 1469 1469 1468 1468 1468 1467 1467 1467 1467 1466 1466 1465 1465 1464 1463 1462 1462 1461 1460 1459 1458 1458 1457 1457
1484 1489 1490 1489 1487 1486 1485 1482 1483 1484 1484 1483 1480 1476 1469 1469 1469 1468 1467 1467 1467 1466 1466 1466 1466 1465 1465 1464 1464 1463 1463 1462 1462 1461 1460 1460 1459 1458 1457 1456 1455 1455 1454 1453
1486 1488 1490 1490 1490 1486 1484 1477 1476 1476 1475 1476 1475 1469 1467 1467 1466 1465 1465 1465 1464 1464 1464 1464 1463 1463 1463 1462 1461 1460 1460 1460 1459 1458 1458 1457 1456 1455 1454 1453 1452 1451 1451 1450
1485 1488 1491 1492 1492 1488 1471 1470 1469 1470 1469 1469 1467 1465 1464 1464 1463 1463 1463 1462 1462 1462 1461 1461 1461 1460 1460 1460 1459 1458 1458 1457 1456 1456 1455 1454 1453 1452 1451 1450 1449 1448 1448 1447
1481 1485 1491 1494 1492 1482 1470 1468 1469 1470 1468 1464 1464 1463 1463 1462 1461 1460 1460 1460 1460 1459 1459 1459 1458 1458 1458 1457 1456 1456 1455 1454 1454 1453 1452 1451 1450 1449 1448 1447 1447 1446 1445 1444
1482 1483 1489 1493 1488 1481 1466 1466 1465 1468 1467 1460 1460 1460 1460 1461 1463 1459 1457 1457 1457 1457 1456 1456 1456 1455 1455 1454 1454 1453 1452 1451 1451 1450 1449 1449 1448 1447 1446 1445 1444 1443 1442 1441
1483 1486 1487 1488 1487 1474 1465 1464 1466 1470 1463 1458 1457 1457 1458 1458 1458 1457 1455 1455 1455 1454 1454 1453 1452 1452 1452 1451 1451 1450 1449 1449 1448 1447 1447 1446 1445 1444 1443 1442 1441 1440 1439 1438
1477 1482 1485 1485 1483 1472 1462 1463 1464 1461 1457 1456 1455 1455 1455 1454 1454 1453 1453 1453 1452 1451 1451 1450 1449 1449 1449 1448 1447 1446 1446 1446 1445 1444 1444 1443 1442 1441 1440 1439 1438 1437 1436 1434
1473 1471 1471 1471 1466 1460 1458 1457 1457 1456 1455 1454 1454 1453 1453 1452 1451 1450 1450 1449 1449 1449 1448 1447 1446 1446 1445 1445 1444 1443 1443 1443 1442 1441 1440 1439 1438 1438 1437 1436 1434 1433 1432 1431
1468 1467 1468 1467 1460 1457 1456 1455 1455 1454 1453 1452 1452 1451 1451 1449 1448 1448 1447 1447 1446 1446 1445 1444 1443 1443 1442 1442 1442 1441 1440 1439 1438 1437 1437 1436 1435 1434 1433 1432 1431 1430 1429 1428
1461 1464 1464 1463 1457 1454 1452 1452 1452 1451 1451 1450 1449 1449 1448 1447 1446 1445 1444 1444 1443 1443 1442 1442 1441 1440 1439 1439 1439 1438 1437 1436 1435 1434 1434 1433 1432 1431 1430 1429 1428 1427 1426 1426
1457 1458 1459 1455 1451 1452 1450 1449 1449 1448 1448 1447 1447 1446 1445 1445 1443 1443 1442 1441 1440 1440 1439 1439 1438 1437 1437 1436 1436 1435 1434 1433 1432 1431 1430 1429 1429 1427 1427 1426 1425 1424 1423 1422